TimeEST,TemperatureF,Dew PointF,Humidity,Sea Level PressureIn,VisibilityMPH,Wind Direction,Wind SpeedMPH,Gust SpeedMPH,PrecipitationIn,Events,Conditions,WindDirDegrees,DateUTC
12:53 AM,72.0,69.1,91,29.99,10.0,South,8.1,-,N/A,,Clear,170,2012-12-29 05:53:00
1:53 AM,-9999,-9999,N/A,29.99,10.0,SSE,8.1,-,N/A,,Partly Cloudy,160,2012-12-29 06:53:00
2:53 AM,-9999,-9999,N/A,29.96,10.0,SSE,12.7,-,N/A,,Partly Cloudy,160,2012-12-29 07:53:00
3:53 AM,73.0,70.0,90,29.97,10.0,South,6.9,-,N/A,,Mostly Cloudy,180,2012-12-29 08:53:00
4:15 AM,73.4,69.8,88,29.95,10.0,South,8.1,-,N/A,,Scattered Clouds,170,2012-12-29 09:15:00
4:53 AM,73.0,70.0,90,29.97,10.0,South,6.9,-,N/A,,Clear,170,2012-12-29 09:53:00
5:53 AM,-9999,-9999,N/A,30.00,10.0,SSW,5.8,-,N/A,,Mostly Cloudy,200,2012-12-29 10:53:00
6:31 AM,-9999,-9999,N/A,30.00,10.0,South,9.2,-,N/A,,Partly Cloudy,180,2012-12-29 11:31:00
6:53 AM,-9999,-9999,N/A,30.02,10.0,South,9.2,-,N/A,,Clear,180,2012-12-29 11:53:00
7:53 AM,-9999,-9999,N/A,30.03,10.0,South,5.8,-,N/A,,Clear,190,2012-12-29 12:53:00
8:53 AM,75.0,72.0,90,30.05,10.0,SW,8.1,-,N/A,,Clear,220,2012-12-29 13:53:00
9:31 AM,78.8,71.6,78,30.05,10.0,SSW,11.5,-,N/A,,Mostly Cloudy,210,2012-12-29 14:31:00
9:45 AM,78.8,71.6,78,30.05,10.0,SSW,11.5,-,N/A,,Mostly Cloudy,200,2012-12-29 14:45:00
9:53 AM,79.0,72.0,79,30.06,10.0,SSW,13.8,-,N/A,,Mostly Cloudy,200,2012-12-29 14:53:00
10:25 AM,80.6,71.6,74,30.05,10.0,SSW,11.5,20.7,N/A,,Mostly Cloudy,210,2012-12-29 15:25:00
10:53 AM,80.1,72.0,76,30.05,10.0,SW,12.7,20.7,N/A,,Mostly Cloudy,230,2012-12-29 15:53:00
11:18 AM,80.6,71.6,74,30.02,10.0,SW,12.7,20.7,N/A,,Scattered Clouds,220,2012-12-29 16:18:00
11:53 AM,82.9,69.1,63,30.02,10.0,WSW,13.8,-,N/A,,Scattered Clouds,240,2012-12-29 16:53:00
12:34 PM,82.4,69.8,66,30.00,10.0,WSW,15.0,-,N/A,,Mostly Cloudy,240,2012-12-29 17:34:00
12:46 PM,82.4,71.6,70,30.00,10.0,WSW,12.7,-,N/A,,Mostly Cloudy,240,2012-12-29 17:46:00
12:53 PM,82.0,70.0,67,30.00,10.0,WSW,16.1,21.9,N/A,,Mostly Cloudy,240,2012-12-29 17:53:00
1:13 PM,82.4,69.8,66,29.98,10.0,WSW,10.4,20.7,N/A,,Mostly Cloudy,240,2012-12-29 18:13:00
1:20 PM,82.4,71.6,70,29.98,10.0,WSW,16.1,20.7,N/A,,Mostly Cloudy,250,2012-12-29 18:20:00
1:53 PM,82.0,70.0,67,29.98,10.0,WSW,17.3,-,N/A,,Scattered Clouds,250,2012-12-29 18:53:00
2:53 PM,81.0,69.1,67,29.97,10.0,WSW,16.1,-,N/A,,Partly Cloudy,250,2012-12-29 19:53:00
3:53 PM,80.1,70.0,71,29.96,10.0,WSW,11.5,19.6,N/A,,Partly Cloudy,240,2012-12-29 20:53:00
4:53 PM,80.1,66.9,64,29.96,10.0,WSW,11.5,-,N/A,,Clear,250,2012-12-29 21:53:00
5:53 PM,78.8,69.8,74,29.98,10.0,WSW,10.4,-,N/A,,Mostly Cloudy,240,2012-12-29 22:53:00
6:38 PM,77.0,69.8,78,30.00,10.0,WSW,11.5,-,N/A,,Mostly Cloudy,250,2012-12-29 23:38:00
6:53 PM,77.0,70.0,79,30.01,10.0,WSW,11.5,-,N/A,,Mostly Cloudy,240,2012-12-29 23:53:00
7:00 PM,75.2,69.8,83,30.00,10.0,WSW,10.4,-,N/A,,Scattered Clouds,240,2012-12-30 00:00:00
7:53 PM,75.0,70.0,84,30.03,10.0,WSW,11.5,18.4,N/A,,Clear,250,2012-12-30 00:53:00
8:53 PM,73.9,70.0,87,30.05,10.0,West,9.2,-,N/A,,Partly Cloudy,270,2012-12-30 01:53:00
9:53 PM,71.1,64.9,81,30.08,10.0,NW,13.8,-,N/A,,Partly Cloudy,310,2012-12-30 02:53:00
10:53 PM,68.0,-9999,N/A,30.11,10.0,NNW,15.0,21.9,N/A,,Unknown,330,2012-12-30 03:53:00
11:53 PM,64.0,-9999,N/A,30.12,10.0,NNW,16.1,23.0,N/A,,Unknown,330,2012-12-30 04:53:00